Location: Newton_Old_St_Pauls
(35.6750°N, 81.2580°W)
Time: 09:37:46
(UTC-05:00)

Daily predictions for brighter satellites

Satellite Brightness Start Highest point End
(mag) Time Altitude Azimuth Time Altitude Azimuth Time Altitude Azimuth
Delta 2 Rocket 3.0 17:36:49 10° W 17:40:19 89° S 17:44:11 10° E
Cosmos 1484 Rocket 4.1 17:41:36 10° ESE 17:44:10 18° ENE 17:46:45 10° NNE
ATLAS 2AS CENTAUR R/B 3.7 17:37:44 10° NW 17:45:34 60° WSW 17:52:46 10° SSE
Cosmos 375 4.2 17:42:56 10° NNW 17:47:10 81° ENE 17:50:59 10° SE
SMAP 3.0 17:45:33 10° SSE 17:50:08 65° ENE 17:54:45 10° N
Cosmos 2369 Rocket 4.0 17:52:01 10° ESE 17:53:26 11° E 17:54:51 10° E
CORIOLIS 4.2 17:48:50 10° SSE 17:54:10 64° ENE 17:59:30 10° N
Cosmos 1975 3.0 17:54:17 10° N 17:58:19 78° W 18:02:20 10° S
SL-24 DEB 4.3 17:53:58 10° NNE 17:58:38 64° E 18:03:15 10° S
Meteor 1-13 Rocket 4.3 17:55:34 10° S 18:01:12 70° E 18:07:00 10° NNE
Meteor 2-4 Rocket 4.1 17:56:55 10° SSE 18:01:48 37° E 18:06:40 10° NNE
Okean 1-7 Rocket 3.7 17:57:51 10° S 18:02:16 58° E 18:06:40 10° NNE
Cosmos 1371 Rocket 4.2 17:57:07 10° S 18:02:19 55° ESE 18:07:35 10° NNE
CZ-4 R/B 4.4 18:00:39 10° SSE 18:04:44 63° ENE 18:08:51 10° N
CZ-4 R/B 2.1 18:02:00 10° S 18:06:06 58° W 18:10:10 10° NNW
MOS 1 4.4 18:00:54 10° SSE 18:06:34 82° WSW 18:12:14 10° NNW
Tiangong 1 2.7 18:05:17 10° WNW 18:07:44 22° N 18:09:19 15° NE
SPOT 3 Rocket 3.8 18:05:18 10° S 18:10:28 77° WSW 18:15:40 10° NNW
MSX 3.8 18:05:12 10° SSE 18:10:53 70° ENE 18:16:37 10° N
Cosmos 1934 Rocket 4.5 18:08:09 10° N 18:13:55 37° ENE 18:19:41 10° SE
COSMOS 2487 3.4 18:10:35 10° NNW 18:14:04 52° WSW 18:17:33 10° S
Cosmos 1340 3.9 18:15:59 10° SE 18:18:51 21° E 18:18:56 21° E
Cosmos 1535 Rocket 4.5 18:18:02 10° N 18:24:13 59° E 18:30:17 10° SSE
Cosmos 1606 Rocket 4.1 18:20:48 10° NNE 18:24:56 36° E 18:29:02 10° SE
Cosmos 1452 Rocket 4.3 18:28:00 10° SSE 18:32:30 30° E 18:33:52 26° ENE
COSMO-SKYMED 1 2.5 18:29:11 10° NNE 18:33:33 90° S 18:37:52 10° SSW
Meteor 2-14 Rocket 4.5 18:29:33 10° N 18:35:43 84° W 18:41:50 10° S
Cosmos 2239 Rocket 4.4 18:29:52 10° N 18:36:04 76° E 18:42:11 10° S
Cosmos 1190 Rocket 4.3 18:31:09 10° N 18:36:06 42° ENE 18:41:00 10° SE
Cosmos 1025 Rocket 3.0 18:32:48 10° S 18:37:10 87° W 18:41:36 10° N
Cosmos 1666 2.6 18:36:21 10° N 18:40:12 63° E 18:44:03 10° SSE
Abrixas 2.6 18:37:23 10° WNW 18:40:19 68° SW 18:41:15 38° SSE
IDEFIX/ARIANE 42P 4.1 18:37:12 10° SSW 18:41:59 37° W 18:46:46 10° NNW
Cosmos 1821 Rocket 3.9 18:42:32 10° N 18:48:39 88° W 18:54:46 10° S
Cosmos 1833 Rocket 3.2 18:47:15 10° NNW 18:52:47 60° WSW 18:58:17 10° S
Orbus 7S? 3.9 18:56:04 10° SSW 18:57:48 31° S 18:57:48 31° S
Cosmos 1605 Rocket 3.9 18:53:16 10° N 18:59:28 61° E 19:05:33 10° SSE
CZ-3B DEB 4.4 18:55:11 10° NW 18:59:39 23° N 19:04:31 16° NNE
Cosmos 2058 Rocket 4.1 18:56:26 10° N 19:02:42 31° SE 19:05:10 10° SSE
USA 234 4.4 18:56:14 15° NNE 19:00:51 35° NNW 19:06:36 10° W
Cosmos 2082 Rocket 3.5 18:56:50 10° NW 19:02:07 41° WSW 19:07:24 10° S
Meteor 1-28 Rocket 3.8 19:06:27 30° NNW 19:08:02 54° WNW 19:11:43 10° SSW
BREEZE M DEB (TANK) 4.0 19:06:57 10° W 19:12:26 25° NW 19:13:17 23° NNW
NOSS 3-4 (A) 3.9 19:14:40 10° NW 19:21:49 80° WSW 19:29:21 10° SSE
NOSS 3-4 (C) 3.9 19:14:46 10° NNW 19:21:55 81° WSW 19:29:27 10° SSE
Delta 2 Rocket 4.0 19:19:02 10° W 19:21:53 49° WSW 19:21:53 49° WSW
Cosmos 407 Rocket 3.5 19:21:10 10° NNW 19:26:19 77° WSW 19:31:29 10° S
BREEZE M DEB (TANK) 4.1 19:26:12 10° NW 19:31:03 64° NE 19:34:22 45° E
Cosmos 1727 Rocket 4.1 19:28:21 10° SSW 19:34:33 72° W 19:38:31 24° N
Cosmos 2369 Rocket 2.1 19:30:58 10° SSW 19:36:37 80° WNW 19:36:50 79° NW
FALCON 9 R/B 2.8 19:29:45 10° W 19:48:21 82° S 19:49:07 73° SE
ATLAS 3B CENTAUR R/B 3.8 19:42:03 10° W 19:58:22 47° SSW 20:00:27 40° SSE
Cosmos 1943 Rocket 4.1 19:59:30 10° SSW 20:01:06 20° SSW 20:01:06 20° SSW
